BEIDOU-2 G7 (C03)

Last updated on Jan. 18, 2020, 4:39 a.m. UTC

1 41586U 16037A   20017.82543405 -.00000358  00000-0  00000+0 0  9998
2 41586   1.2125  57.7394 0008185 354.6142 111.9513  1.00265437 13293
UTC
Height (km)
Latitude
Longitude
Inclination
Orbital Period
UTC large
Height (km)
Speed (km/s)
/
Latitude / Longitude
Inclination (degrees)
Orbital Period (minutes)
Azimuth
Elevation
Range (km)
Doppler Factor
iOS Compass Heading
iOS Angle

Next 30 passes for location: Hong Kong

Rise time Rise Azimuth (degrees) Set time Set Azimuth (degrees) Duration Max altitude (degrees)

No matching passes for this satellites